Location: Seattle
(47.6064°N, 122.3308°W)
Time: 05:43:39
(UTC-08:00)

S-56A Canister/Altair - Pass Details

Date: 28 November 2020
Orbit: 633 x 2499 km, 38.9° (Epoch: 23 January)

Event Time Altitude Azimuth Distance (km) Brightness Sun altitude
Rises 19:35:27 0° 230° (SW) 5,651 12.6 -32.0°
Reaches altitude 10° 19:39:53 10° 223° (SW) 4,384 11.8 -32.8°
Enters shadow 19:49:01 36° 172° (S) 2,269 9.7 -34.3°
Maximum altitude 19:49:43 36° 163° (SSE) 2,209 - -34.5°
Drops below altitude 10° 19:56:37 10° 100° (E) 3,064 - -35.6°
Sets 19:59:10 0° 91° (E) 3,803 - -36.0°
